Home > Weather > Orkanger/Fannrem > Past weeks

Flag for Norway Past Weather in Orkanger/Fannrem, Norway — Yesterday and Last 2 Weeks

Now
58 °F

Cool.


Feels Like: 58 °F
Forecast: 53 / 81 °F
Wind: No wind

Location: Marstein

Current Time: Jul 24, 2016 at 3:13:20 AM

Latest Report: Jul 24, 2016 at 2:00 AM


Visibility: N/A

Pressure: 30.13 "Hg

Humidity: 90%

Dew Point: 55 °F

Location of Orkanger/FannremLocation

Past Weather in Orkanger/Fannrem — Graph

°F

Orkanger/Fannrem Temperature Yesterday

Maximum temperature yesterday: 69 °F (at 6:00 PM)
Minimum temperature yesterday: 60 °F (at 8:00 AM)
Average temperature yesterday: 64 °F

High & Low Weather Summary for the Past Weeks

 TemperatureHumidityPressure
High87 °F (Jul 21, 4:00 PM)94% (Jul 23, 7:00 AM)30.13 "Hg (Jul 23, 7:00 AM)
Low51 °F (Jul 16, 2:00 AM)25% (Jul 21, 2:00 PM)29.41 "Hg (Jul 11, 7:00 AM)
Average59 °F82%29.84 "Hg
* Reported Jul 9 1:00 AM — Jul 24 1:00 AM, Orkanger/Fannrem, Weather by CustomWeather, © 2016

Note: Actual official high and low records may vary slightly from our data, if they occured in-between our weather recording intervals... More about our weather records

Advertising

Orkanger/Fannrem Weather History for the Previous 24 Hours

Scroll right to see more
 ConditionsComfort  
Time TempWeatherWind HumidityBarometerVisibility
1:00 AM
Sun, Jul 24
59 °FCool.No wind89%30.12 "HgN/A
12:00 AM62 °FCool.1 mph86%30.13 "HgN/A
11:00 PM
Sat, Jul 23
64 °FMild.1 mph81%30.13 "HgN/A
10:00 PM66 °FMild.1 mph74%30.11 "HgN/A
9:00 PM67 °FMild.1 mph75%30.10 "HgN/A
8:00 PM68 °FMild.1 mph70%30.10 "HgN/A
7:00 PM68 °FMild.1 mph72%30.09 "HgN/A
6:00 PM69 °FMild.2 mph71%30.10 "HgN/A
5:00 PM67 °FMild.5 mph74%30.10 "HgN/A
4:00 PM68 °FMild.3 mph71%30.10 "HgN/A
3:00 PM68 °FMild.3 mph73%30.11 "HgN/A
2:00 PM65 °FMild.2 mph78%30.12 "HgN/A
1:00 PM65 °FMild.2 mph81%30.13 "HgN/A
12:00 PM64 °FMild.2 mph83%30.12 "HgN/A
11:00 AM61 °FCool.2 mph90%30.13 "HgN/A
10:00 AM60 °FCool.2 mph91%30.13 "HgN/A
9:00 AM61 °FCool.1 mph91%30.13 "HgN/A
8:00 AM60 °FCool.3 mph92%30.11 "HgN/A
7:00 AM60 °FCool.2 mph94%30.11 "HgN/A
6:00 AM61 °FCool.1 mph93%30.10 "HgN/A
5:00 AM61 °FCool.1 mph93%30.10 "HgN/A
4:00 AM62 °FCool.1 mph93%30.09 "HgN/A
3:00 AM61 °FCool.No wind93%30.09 "HgN/A
Weather by CustomWeather, © 2016

See weather overviewHow to use our weather pages